[[{"header":{"parameterUnit":"m.s-1","parameterCategory":1,"la1":30.2991,"la2":30.254,"lo1":-89.0895,"lo2":-89.0444,"dx":0.0017,"dy":0.0017,"nx":28,"ny":28,"refTime":"2022-12-05T15:00:00:Z","depth":0,"parameterNumber":2,"parameterNumberName":"U-component_of_WINDS"},"data":[0,0,0,0,0,0,0,0,0,0,0,0,0,0,0,0,0,0,0,0,0,0,0,0,0,0,0,0,0,0,0,0,0,0,0,0,0,0,0,0,0,0,0,0,0,0,0,0,0,0,0,0,0,0,0,0,0,0,-1.0615,-1.0616,0,-1.0643,-1.0644,-1.0644,-1.0662,-1.0662,-1.0662,-1.0662,-1.0689,-1.069,-1.0691,0,0,0,0,0,0,0,0,0,0,0,0,0,-1.0576,-1.0577,-1.0615,-1.0616,-1.0616,-1.0643,-1.0644,-1.0644,-1.0662,-1.0662,-1.0662,-1.0662,-1.0689,-1.069,-1.0691,0,0,0,0,0,0,0,0,0,0,0,0,0,-1.0597,-1.0577,-1.0615,-1.0628,-1.063,-1.0643,-1.0644,-1.0644,-1.0662,-1.0662,-1.0662,-1.0662,-1.0689,-1.069,-1.0691,-1.0693,0,0,-1.0694,-1.0694,0,0,0,0,0,0,0,0,-1.0596,-1.0599,-1.0626,-1.0627,-1.0629,-1.0649,-1.064,-1.066,-1.0662,-1.0649,-1.0662,-1.0662,-1.0676,-1.0678,-1.0683,-1.0694,-1.0696,-1.0694,-1.0694,-1.0695,-1.0695,0,0,0,0,0,0,0,-1.0595,-1.0598,-1.0626,-1.0626,-1.0628,-1.0632,-1.0635,-1.0644,-1.0661,-1.065,-1.0652,-1.0655,-1.0677,-1.0682,-1.0683,-1.0696,-1.0694,-1.0694,-1.0695,-1.0695,-1.0711,-1.071,0,0,0,0,0,0,-1.0591,-1.0596,-1.0625,-1.0627,-1.0613,-1.0633,-1.0636,-1.0642,-1.0661,-1.0664,-1.0655,-1.0656,-1.068,-1.0682,-1.0684,-1.0688,-1.0695,-1.0695,-1.0696,-1.0711,-1.0711,-1.071,0,0,0,0,0,0,-1.059,-1.0594,-1.0624,-1.0612,-1.0616,-1.0633,-1.064,-1.0643,-1.0648,-1.0665,-1.0668,-1.0657,-1.068,-1.0683,-1.0691,-1.0689,-1.0696,-1.0697,-1.0711,-1.0711,-1.0711,-1.0696,0,0,0,0,0,0,-1.0589,-1.0593,-1.0595,-1.0612,-1.0617,-1.0631,-1.064,-1.0643,-1.065,-1.0651,-1.0667,-1.067,-1.0681,-1.0689,-1.0692,-1.0691,-1.0697,-1.0711,-1.0711,-1.0711,-1.0696,-1.0695,-1.0694,0,0,0,0,0,-1.0588,-1.0589,-1.0595,-1.0598,-1.0619,-1.0631,-1.0633,-1.0646,-1.065,-1.0651,-1.0661,-1.067,-1.0689,-1.069,-1.0693,-1.0692,-1.0711,-1.0711,-1.0711,-1.0697,-1.0695,-1.0694,0,0,0,0,0,0,-1.0571,-1.0592,-1.0598,-1.0606,-1.0616,-1.0634,-1.0636,-1.0644,-1.0653,-1.0654,-1.0669,-1.0672,-1.0678,-1.0686,-1.0686,-1.0695,-1.0701,-1.0701,-1.069,-1.0688,-1.0687,-1.0685,-1.0698,0,0,0,0,0,-1.0569,-1.0577,-1.0594,-1.0599,-1.0604,-1.0619,-1.0624,-1.0633,-1.0644,-1.0649,-1.066,-1.067,-1.0679,-1.0684,-1.0693,-1.0698,-1.0701,-1.0699,-1.0697,-1.0696,-1.0696,-1.0699,-1.0697,-1.0709,-1.0709,-1.0709,0,0,-1.0563,-1.0575,-1.0579,-1.0596,-1.0605,-1.0612,-1.0623,-1.063,-1.0635,-1.065,-1.0658,-1.0666,-1.0679,-1.0685,-1.0688,-1.0692,-1.0693,-1.0696,-1.0695,-1.0695,-1.0698,-1.0697,-1.0696,-1.0709,-1.0709,-1.0709,0,0,-1.0556,-1.0567,-1.0572,-1.0581,-1.0595,-1.0605,-1.0606,-1.0622,-1.0628,-1.0636,-1.0647,-1.0654,-1.0668,-1.0676,-1.0682,-1.0679,-1.0686,-1.0681,-1.0674,-1.0676,-1.0675,-1.0675,-1.0673,-1.0672,-1.0681,-1.0681,-1.0681,0,-1.0548,-1.056,-1.0573,-1.058,-1.0587,-1.06,-1.0605,-1.0613,-1.0629,-1.0633,-1.0636,-1.0655,-1.0664,-1.0672,-1.0671,-1.0676,-1.0677,-1.0679,-1.0675,-1.0674,-1.0673,-1.0672,-1.0671,-1.068,-1.068,-1.068,-1.068,0,-1.0548,-1.0556,-1.0558,-1.0573,-1.058,-1.0586,-1.06,-1.0605,-1.0613,-1.0622,-1.063,-1.0642,-1.0653,-1.0655,-1.0663,-1.0664,-1.0666,-1.0672,-1.0678,-1.0671,-1.067,-1.0669,-1.0679,-1.0679,-1.0679,-1.068,0,0,-1.0532,-1.0554,-1.0555,-1.0562,-1.0578,-1.0584,-1.059,-1.0601,-1.0605,-1.0615,-1.062,-1.0632,-1.0638,-1.0644,-1.0653,-1.0655,-1.0651,-1.0661,-1.0661,-1.0658,-1.0652,-1.0647,-1.0646,-1.0656,-1.0656,-1.0656,-1.0651,0,-1.0528,-1.0539,-1.0551,-1.0559,-1.0566,-1.0579,-1.0584,-1.0594,-1.0602,-1.0609,-1.0619,-1.0627,-1.0634,-1.0638,-1.0641,-1.0651,-1.0649,-1.0651,-1.066,-1.066,-1.0656,-1.0645,-1.064,-1.0635,-1.065,-1.065,-1.065,0,-1.0524,-1.0534,-1.0542,-1.0557,-1.056,-1.0565,-1.0575,-1.0582,-1.0594,-1.06,-1.0607,-1.0616,-1.0623,-1.0628,-1.0637,-1.0638,-1.0642,-1.0647,-1.0648,-1.0648,-1.0654,-1.0646,-1.0634,-1.0633,-1.065,-1.065,-1.065,0,-1.0511,-1.0526,-1.0533,-1.0538,-1.0556,-1.0559,-1.0566,-1.0578,-1.0583,-1.0593,-1.0596,-1.0606,-1.0612,-1.0619,-1.063,-1.0633,-1.0637,-1.0644,-1.0642,-1.0642,-1.0642,-1.0642,-1.063,-1.0645,-1.0645,-1.0645,-1.0645,0,-1.0505,-1.0509,-1.0527,-1.0531,-1.0536,-1.055,-1.0554,-1.0562,-1.0573,-1.0578,-1.059,-1.0594,-1.0609,-1.0616,-1.0625,-1.063,-1.0633,-1.0637,-1.0639,-1.0636,-1.0635,-1.0639,-1.0639,-1.0645,-1.0645,-1.0645,-1.0645,0,-1.0491,-1.0503,-1.0511,-1.0527,-1.0531,-1.0534,-1.0548,-1.0552,-1.0561,-1.0568,-1.057,-1.0584,-1.0592,-1.0605,-1.0616,-1.0622,-1.0626,-1.063,-1.0622,-1.0623,-1.062,-1.062,-1.061,-1.0609,-1.0625,-1.0625,-1.0625,0,-1.0486,-1.0489,-1.0505,-1.051,-1.0517,-1.0524,-1.053,-1.0543,-1.0549,-1.0562,-1.0564,-1.0573,-1.0581,-1.0593,-1.0605,-1.0613,-1.0617,-1.0613,-1.0619,-1.0615,-1.0617,-1.0616,-1.0616,-1.0612,-1.0612,-1.0611,-1.0611,0,-1.0475,-1.0481,-1.0489,-1.0499,-1.0506,-1.0514,-1.0523,-1.0526,-1.0541,-1.0547,-1.0555,-1.0561,-1.0573,-1.0582,-1.0592,-1.0599,-1.0607,-1.0609,-1.0609,-1.0605,-1.06,-1.0602,-1.0618,-1.0609,-1.061,-1.061,-1.061,-1.061,-1.0465,-1.0469,-1.048,-1.0489,-1.0497,-1.0505,-1.0509,-1.0519,-1.0526,-1.0537,-1.0545,-1.0552,-1.0563,-1.0578,-1.0585,-1.0591,-1.0594,-1.0594,-1.0594,-1.0594,-1.0592,-1.06,-1.0593,-1.0593,-1.0593,-1.0593,-1.0593,0,-1.0455,-1.0463,-1.047,-1.0483,-1.0489,-1.0496,-1.0507,-1.0511,-1.0518,-1.0528,-1.0535,-1.0544,-1.0553,-1.0564,-1.0573,-1.0576,-1.058,-1.0578,-1.0577,-1.0579,-1.0589,-1.0588,-1.0574,-1.0574,-1.0574,-1.0574,-1.0574,-1.0574,-1.045,-1.0456,-1.0463,-1.0473,-1.0481,-1.0489,-1.0494,-1.0501,-1.0509,-1.0519,-1.0526,-1.0533,-1.0543,-1.0553,-1.0561,-1.0564,-1.0566,-1.0563,-1.0567,-1.0576,-1.0578,-1.058,-1.0579,-1.0564,-1.0564,-1.0557,-1.0557,-1.0557]},{"header":{"parameterUnit":"m.s-1","parameterCategory":1,"la1":30.2991,"la2":30.254,"lo1":-89.0895,"lo2":-89.0444,"dx":0.0017,"dy":0.0017,"nx":28,"ny":28,"refTime":"2022-12-05T15:00:00:Z","depth":0,"parameterNumber":3,"parameterNumberName":"V-component_of_WINDS"},"data":[0,0,0,0,0,0,0,0,0,0,0,0,0,0,0,0,0,0,0,0,0,0,0,0,0,0,0,0,0,0,0,0,0,0,0,0,0,0,0,0,0,0,0,0,0,0,0,0,0,0,0,0,0,0,0,0,0,0,3.1584,3.1585,0,3.1661,3.1662,3.1663,3.166,3.1659,3.1658,3.1657,3.1732,3.1735,3.1738,0,0,0,0,0,0,0,0,0,0,0,0,0,3.1432,3.1435,3.1584,3.1585,3.1586,3.1661,3.1662,3.1663,3.166,3.1659,3.1658,3.1657,3.1731,3.1735,3.1739,0,0,0,0,0,0,0,0,0,0,0,0,0,3.1502,3.1436,3.1584,3.1594,3.1595,3.1661,3.1662,3.1663,3.1661,3.1659,3.1658,3.1656,3.173,3.1735,3.1739,3.1799,0,0,3.1753,3.1755,0,0,0,0,0,0,0,0,3.1498,3.1508,3.1591,3.1593,3.1595,3.165,3.1636,3.1709,3.1661,3.1636,3.1657,3.1655,3.1706,3.1712,3.173,3.1802,3.1805,3.1753,3.1756,3.1758,3.1759,0,0,0,0,0,0,0,3.1493,3.1505,3.1614,3.1592,3.1595,3.1594,3.1602,3.165,3.1679,3.1638,3.1638,3.1647,3.1707,3.1726,3.1732,3.1806,3.1753,3.1757,3.176,3.1761,3.1935,3.1936,0,0,0,0,0,0,3.1487,3.15,3.1612,3.1617,3.1542,3.1598,3.1607,3.1634,3.1678,3.1683,3.1649,3.1647,3.1719,3.1727,3.1734,3.181,3.1758,3.1762,3.1764,3.1933,3.1935,3.1937,0,0,0,0,0,0,3.1484,3.1497,3.1609,3.1559,3.1573,3.1602,3.1632,3.1636,3.1655,3.1686,3.1691,3.1663,3.1718,3.1728,3.1784,3.1812,3.1764,3.1768,3.193,3.1933,3.1936,3.196,0,0,0,0,0,0,3.1479,3.1496,3.1519,3.1559,3.1576,3.1657,3.1634,3.1639,3.1663,3.1662,3.1701,3.1706,3.1717,3.1777,3.1788,3.1818,3.1772,3.1928,3.1932,3.1935,3.1956,3.1963,3.1968,0,0,0,0,0,3.1474,3.1521,3.152,3.1533,3.1605,3.1659,3.1668,3.1681,3.1666,3.1689,3.171,3.1705,3.1807,3.1783,3.1795,3.1827,3.1926,3.1931,3.1935,3.1954,3.1962,3.1968,0,0,0,0,0,0,3.1481,3.1526,3.1526,3.1587,3.162,3.1658,3.1688,3.1689,3.1725,3.1722,3.1736,3.1744,3.1801,3.1819,3.1791,3.1888,3.1865,3.1872,3.1875,3.1882,3.1888,3.1884,3.1775,0,0,0,0,0,3.149,3.153,3.1567,3.1618,3.1634,3.1659,3.1682,3.169,3.1724,3.1737,3.1761,3.1793,3.1833,3.1858,3.1896,3.1959,3.1968,3.1986,3.1992,3.1997,3.2003,3.2041,3.205,3.1951,3.1951,3.1951,0,0,3.1508,3.1538,3.1562,3.162,3.1646,3.1688,3.167,3.1714,3.1746,3.1743,3.1798,3.1817,3.1854,3.1914,3.1942,3.1931,3.2033,3.2003,3.2006,3.201,3.2046,3.2056,3.2064,3.1954,3.1954,3.1953,0,0,3.1563,3.1589,3.1636,3.1663,3.1704,3.172,3.1731,3.1771,3.1784,3.184,3.184,3.1877,3.1944,3.1971,3.1994,3.2063,3.2061,3.2074,3.2106,3.2143,3.2151,3.2158,3.2185,3.2194,3.208,3.208,3.208,0,3.158,3.1645,3.1659,3.1705,3.1732,3.1734,3.1782,3.1806,3.1856,3.1875,3.1862,3.1949,3.1973,3.2041,3.2059,3.2076,3.209,3.2071,3.2149,3.2156,3.2162,3.2189,3.2198,3.2082,3.2082,3.2082,3.2082,0,3.1665,3.171,3.1743,3.1794,3.1824,3.187,3.1892,3.192,3.1926,3.1944,3.2002,3.2032,3.2077,3.2094,3.2098,3.2164,3.2156,3.2146,3.2123,3.2173,3.2198,3.2208,3.2084,3.2084,3.2083,3.2083,0,0,3.1726,3.1788,3.18,3.1825,3.1871,3.1905,3.1952,3.1999,3.2024,3.2058,3.2099,3.2158,3.215,3.2175,3.2183,3.2215,3.2271,3.2201,3.2202,3.2215,3.2348,3.2357,3.2368,3.227,3.2271,3.2273,3.2346,0,3.1788,3.1874,3.189,3.1965,3.2007,3.2011,3.2052,3.2085,3.2103,3.2142,3.2161,3.2204,3.2188,3.2205,3.2236,3.2258,3.2298,3.2252,3.2309,3.231,3.2302,3.2381,3.239,3.2457,3.2355,3.2357,3.2358,0,3.1872,3.1913,3.1992,3.2036,3.2054,3.2091,3.2137,3.2174,3.2211,3.2222,3.2253,3.2258,3.2308,3.2282,3.2351,3.232,3.2343,3.2358,3.2361,3.2368,3.2339,3.2392,3.2479,3.249,3.2373,3.2372,3.2371,0,3.1912,3.1986,3.2044,3.2065,3.2116,3.2143,3.2165,3.2202,3.223,3.2269,3.2288,3.2331,3.2355,3.2389,3.2406,3.2385,3.2476,3.245,3.2487,3.2487,3.2507,3.2506,3.2601,3.2519,3.2519,3.2518,3.2518,0,3.1981,3.203,3.2064,3.2099,3.2155,3.2173,3.2227,3.2249,3.2282,3.2322,3.2327,3.2364,3.2383,3.2424,3.2437,3.2494,3.2504,3.2515,3.2519,3.2517,3.2516,3.2534,3.253,3.2521,3.252,3.252,3.252,0,3.2036,3.2059,3.2124,3.2169,3.2181,3.222,3.2258,3.2294,3.2313,3.2364,3.2377,3.2406,3.2455,3.2475,3.2533,3.2542,3.2609,3.2607,3.2597,3.2598,3.2635,3.2633,3.2747,3.2764,3.2668,3.2669,3.267,0,3.2079,3.2118,3.2168,3.2196,3.222,3.2265,3.2295,3.2314,3.2345,3.2393,3.2423,3.2471,3.2512,3.2589,3.2615,3.266,3.2661,3.2698,3.2668,3.2666,3.2665,3.2664,3.2669,3.2704,3.2705,3.2706,3.2707,0,3.2155,3.2166,3.2209,3.2258,3.2294,3.2332,3.237,3.2392,3.2417,3.2452,3.2503,3.2534,3.2596,3.2645,3.2693,3.2715,3.2716,3.2716,3.2728,3.2727,3.272,3.2727,3.2615,3.2714,3.2713,3.2712,3.2712,3.2712,3.2207,3.2243,3.2285,3.2334,3.2365,3.2401,3.2437,3.2462,3.2505,3.2559,3.2567,3.2622,3.266,3.2725,3.275,3.2793,3.2783,3.2799,3.2804,3.2808,3.2812,3.2712,3.2801,3.2801,3.2801,3.28,3.28,0,3.2285,3.2313,3.2358,3.2413,3.2452,3.245,3.2493,3.2525,3.2574,3.2611,3.2652,3.2712,3.276,3.2791,3.284,3.2869,3.2871,3.2881,3.288,3.2886,3.2816,3.2803,3.2879,3.2879,3.2879,3.2879,3.2879,3.2879,3.2331,3.2393,3.2409,3.2486,3.2513,3.2569,3.2594,3.2627,3.2658,3.2725,3.2766,3.2787,3.2822,3.2874,3.2919,3.2926,3.2945,3.2957,3.2964,3.2899,3.289,3.2883,3.287,3.296,3.296,3.3031,3.3032,3.3033]}]]